• In Belarus
  • List of Countries
  • For 7 days
  • Water Temperature
  • Satellite Maps
  • Weather Map
  • Weather Widgets
  • user-avatar
    Login

    Hourly Weather Spiez

    Today, 26 September, Wednesday

    Time Temperature Precipitation Wind Pressure Humidity
    00:00 +7°C° 0 mm 2 mps 713 mmHg 86%
    01:00 +7°C° 0 mm 2 mps 713 mmHg 86%
    02:00 +7°C° 0 mm 2 mps 713 mmHg 86%
    03:00 +7°C° 0 mm 2 mps 713 mmHg 85%
    04:00 +7°C° 0 mm 2 mps 713 mmHg 84%
    05:00 +8°C° 0 mm 1 mps 713 mmHg 81%
    06:00 +9°C° 0 mm 1 mps 714 mmHg 77%
    07:00 +9°C° 0 mm 1 mps 714 mmHg 73%
    08:00 +12°C° 0 mm 1 mps 714 mmHg 64%
    09:00 +15°C° 0 mm 1 mps 715 mmHg 55%
    10:00 +18°C° 0 mm 0 mps 715 mmHg 46%
    11:00 +21°C° 0 mm 1 mps 715 mmHg 44%
    12:00 +22°C° 0 mm 1 mps 715 mmHg 42%
    13:00 +23°C° 0 mm 1 mps 715 mmHg 40%
    14:00 +23°C° 0 mm 1 mps 714 mmHg 43%
    15:00 +23°C° 0 mm 1 mps 714 mmHg 46%
    16:00 +22°C° 0 mm 1 mps 714 mmHg 49%
    17:00 +20°C° 0 mm 1 mps 714 mmHg 59%
    18:00 +16°C° 0 mm 1 mps 713 mmHg 69%
    19:00 +13°C° 0 mm 1 mps 713 mmHg 79%
    20:00 +13°C° 0 mm 1 mps 713 mmHg 79%
    21:00 +12°C° 0 mm 1 mps 713 mmHg 78%
    22:00 +12°C° 0 mm 1 mps 714 mmHg 78%
    23:00 +12°C° 0 mm 1 mps 713 mmHg 76%

    Tomorrow, 27 September, Thursday

    Time Temperature Precipitation Wind Pressure Humidity
    00:00 +12°C° 0 mm 1 mps 713 mmHg 74%
    01:00 +12°C° 0 mm 1 mps 713 mmHg 72%
    02:00 +12°C° 0 mm 1 mps 713 mmHg 69%
    03:00 +12°C° 0 mm 1 mps 713 mmHg 67%
    04:00 +12°C° 0 mm 1 mps 713 mmHg 65%
    05:00 +12°C° 0 mm 1 mps 712 mmHg 63%
    06:00 +12°C° 0 mm 1 mps 712 mmHg 60%
    07:00 +12°C° 0 mm 1 mps 712 mmHg 58%
    08:00 +15°C° 0 mm 1 mps 713 mmHg 53%
    09:00 +19°C° 0 mm 1 mps 713 mmHg 47%
    10:00 +22°C° 0 mm 1 mps 713 mmHg 41%
    11:00 +23°C° 0 mm 1 mps 713 mmHg 41%
    12:00 +24°C° 0 mm 1 mps 712 mmHg 40%
    13:00 +25°C° 0 mm 1 mps 712 mmHg 39%
    14:00 +25°C° 0 mm 1 mps 712 mmHg 43%
    15:00 +25°C° 0 mm 1 mps 711 mmHg 46%
    16:00 +24°C° 0 mm 1 mps 711 mmHg 49%
    17:00 +21°C° 0 mm 1 mps 710 mmHg 59%
    18:00 +19°C° 0 mm 1 mps 710 mmHg 69%
    19:00 +15°C° 0 mm 1 mps 709 mmHg 79%
    20:00 +14°C° 0 mm 1 mps 709 mmHg 79%
    21:00 +14°C° 0 mm 1 mps 709 mmHg 79%
    22:00 +14°C° 0 mm 1 mps 709 mmHg 79%
    23:00 +13°C° 0 mm 1 mps 709 mmHg 78%

    Day after tomorrow, 28 September, Friday

    Time Temperature Precipitation Wind Pressure Humidity
    00:00 +13°C° 0 mm 1 mps 708 mmHg 76%
    01:00 +13°C° 0 mm 1 mps 708 mmHg 74%
    02:00 +13°C° 0 mm 1 mps 707 mmHg 72%
    03:00 +12°C° 0 mm 1 mps 707 mmHg 70%
    04:00 +12°C° 0 mm 1 mps 706 mmHg 68%
    05:00 +12°C° 0 mm 1 mps 706 mmHg 67%
    06:00 +12°C° 0 mm 1 mps 706 mmHg 65%
    07:00 +12°C° 0 mm 1 mps 706 mmHg 64%
    08:00 +15°C° 0 mm 1 mps 706 mmHg 59%
    09:00 +19°C° 0 mm 1 mps 706 mmHg 53%
    10:00 +22°C° 0 mm 1 mps 706 mmHg 47%
    11:00 +23°C° 0 mm 1 mps 706 mmHg 46%
    12:00 +23°C° 0 mm 1 mps 705 mmHg 46%
    13:00 +24°C° 0 mm 2 mps 705 mmHg 45%
    14:00 +23°C° 0 mm 2 mps 705 mmHg 48%
    15:00 +23°C° 0 mm 2 mps 704 mmHg 52%
    16:00 +23°C° 0 mm 2 mps 703 mmHg 55%
    17:00 +20°C° 0 mm 1 mps 703 mmHg 66%
    18:00 +18°C° 0 mm 1 mps 703 mmHg 77%
    19:00 +14°C° 0 mm 1 mps 703 mmHg 88%
    20:00 +14°C° 0 mm 1 mps 703 mmHg 90%
    21:00 +13°C° 0 mm 1 mps 703 mmHg 91%
    22:00 +13°C° 0 mm 1 mps 703 mmHg 93%
    23:00 +13°C° 0 mm 1 mps 703 mmHg 93%

    29 September, Saturday

    Time Temperature Precipitation Wind Pressure Humidity
    00:00 +12°C° 0 mm 1 mps 703 mmHg 94%
    01:00 +12°C° 0 mm 1 mps 703 mmHg 94%
    02:00 +12°C° 0 mm 1 mps 703 mmHg 94%
    03:00 +11°C° 0 mm 1 mps 703 mmHg 94%
    04:00 +11°C° 0 mm 1 mps 703 mmHg 94%
    05:00 +11°C° 0 mm 1 mps 703 mmHg 94%
    06:00 +10°C° 0 mm 2 mps 703 mmHg 94%
    07:00 +10°C° 0 mm 2 mps 703 mmHg 94%
    08:00 +12°C° 0 mm 2 mps 703 mmHg 88%
    09:00 +13°C° 0 mm 2 mps 704 mmHg 83%
    10:00 +14°C° 0 mm 3 mps 704 mmHg 78%
    11:00 +14°C° 0 mm 3 mps 704 mmHg 75%
    12:00 +16°C° 0 mm 3 mps 703 mmHg 72%
    13:00 +16°C° 0 mm 3 mps 703 mmHg 69%
    14:00 +16°C° 0 mm 3 mps 703 mmHg 70%
    15:00 +14°C° 0 mm 3 mps 703 mmHg 71%
    16:00 +14°C° 0 mm 3 mps 703 mmHg 71%
    17:00 +13°C° 0 mm 3 mps 703 mmHg 77%
    18:00 +11°C° 0 mm 3 mps 703 mmHg 83%
    19:00 +10°C° 0 mm 2 mps 703 mmHg 89%
    20:00 +9°C° 0 mm 2 mps 703 mmHg 90%
    21:00 +9°C° 0 mm 2 mps 703 mmHg 91%
    22:00 +8°C° 0 mm 2 mps 703 mmHg 92%
    23:00 +8°C° 0 mm 2 mps 703 mmHg 92%

    30 September, Sunday

    Time Temperature Precipitation Wind Pressure Humidity
    00:00 +8°C° 0 mm 2 mps 703 mmHg 93%
    01:00 +8°C° 0 mm 2 mps 702 mmHg 94%
    02:00 +9°C° 0 mm 1 mps 702 mmHg 94%
    03:00 +9°C° 0 mm 1 mps 702 mmHg 95%
    04:00 +8°C° 0 mm 1 mps 702 mmHg 95%
    05:00 +9°C° 0 mm 1 mps 702 mmHg 95%
    06:00 +9°C° 0 mm 1 mps 702 mmHg 95%
    07:00 +9°C° 0 mm 1 mps 702 mmHg 94%
    08:00 +11°C° 0 mm 1 mps 702 mmHg 86%
    09:00 +13°C° 0 mm 1 mps 702 mmHg 78%
    10:00 +15°C° 0 mm 1 mps 703 mmHg 70%
    11:00 +16°C° 0 mm 1 mps 702 mmHg 66%
    12:00 +18°C° 0 mm 1 mps 702 mmHg 62%
    13:00 +18°C° 0 mm 2 mps 702 mmHg 58%
    14:00 +18°C° 0 mm 2 mps 702 mmHg 59%
    15:00 +19°C° 0 mm 1 mps 702 mmHg 61%
    16:00 +18°C° 0 mm 1 mps 701 mmHg 63%
    17:00 +15°C° 0 mm 1 mps 701 mmHg 72%
    18:00 +13°C° 0 mm 1 mps 701 mmHg 81%
    19:00 +11°C° 0 mm 1 mps 701 mmHg 91%
    20:00 +11°C° 0 mm 1 mps 702 mmHg 91%
    21:00 +11°C° 0 mm 1 mps 702 mmHg 92%
    22:00 +10°C° 0 mm 1 mps 702 mmHg 93%
    23:00 +10°C° 0 mm 1 mps 702 mmHg 93%

    1 October, Monday

    Time Temperature Precipitation Wind Pressure Humidity
    00:00 +10°C° 0 mm 1 mps 702 mmHg 93%
    01:00 +9°C° 0 mm 1 mps 701 mmHg 93%
    02:00 +9°C° 0 mm 1 mps 701 mmHg 93%
    03:00 +9°C° 0 mm 1 mps 701 mmHg 92%
    04:00 +8°C° 0 mm 1 mps 701 mmHg 92%
    05:00 +9°C° 0 mm 1 mps 701 mmHg 90%
    06:00 +9°C° 0 mm 1 mps 701 mmHg 89%
    07:00 +9°C° 0 mm 1 mps 702 mmHg 88%
    08:00 +11°C° 0 mm 1 mps 702 mmHg 78%
    09:00 +13°C° 0 mm 1 mps 702 mmHg 68%
    10:00 +16°C° 0 mm 1 mps 703 mmHg 58%
    11:00 +18°C° 0 mm 1 mps 703 mmHg 57%
    12:00 +17°C° 0 mm 2 mps 703 mmHg 55%
    13:00 +18°C° 0 mm 2 mps 703 mmHg 54%
    14:00 +18°C° 0 mm 2 mps 703 mmHg 57%
    15:00 +17°C° 0 mm 2 mps 703 mmHg 60%
    16:00 +17°C° 0 mm 2 mps 703 mmHg 64%
    17:00 +15°C° 0 mm 2 mps 703 mmHg 72%
    18:00 +13°C° 0 mm 2 mps 704 mmHg 80%
    19:00 +12°C° 0 mm 2 mps 704 mmHg 88%
    20:00 +10°C° 0 mm 2 mps 704 mmHg 89%
    21:00 +10°C° 0 mm 2 mps 705 mmHg 90%
    22:00 +10°C° 0 mm 1 mps 705 mmHg 91%
    23:00 +9°C° 0 mm 1 mps 705 mmHg 90%
    Show more